{"data":{"norad_id":40420,"epoch":"2026-09-19T23:11:26.401056Z","epoch_age_seconds":87363,"freshness":"FRESH","line1":"1 40420U 15009A   26262.96627779  .00000989  00000+0  70701-4 0  9990","line2":"2 40420  97.8207 321.2182 0014662 292.7878  67.1800 15.06821782633202","mean_motion":15.06821782,"eccentricity":0.0014662,"inclination_deg":97.8207,"raan_deg":321.2182,"arg_perigee_deg":292.7878,"mean_anomaly_deg":67.18,"bstar":7.0701e-5,"rev_number":63320,"period_min":95.565382529093,"perigee_km":535.76710726462,"apogee_km":556.07120954353,"semimajor_km":6924.0561584041,"source":"CELESTRAK","updated_at":"2026-09-20T09:00:14.061828Z"}}